星链-3144 (STARLINK-3144 )

导读 | 豆包AI

STARLINK-3144是美国太空探索技术公司于2021年11月13日发射的星链低轨互联网卫星,归属星链项目。星链项目旨在构建全球卫星互联网组网,该卫星承担地面网络覆盖盲区的互联网接入服务,运行在近地轨道,依托批量部署的星座系统,为全球用户提供宽带通信服务,是星链全球组网进程中的一颗现役卫星。

Basic Information
目录编号:
49412
目录名称:
STARLINK-3144
国际标识:
2021-104E
轨道中心:
EARTH
卫星名称:
星链-3144
卫星全名:
星链-3144 (STARLINK-3144 )
卫星状态:
已陨落 最后检测时间 2024-12-20
发射日期:
2021-11-13 UTC
国别 :
美国 (US)
星等 :
--
Orbit Information
数据来源 国际轨道数据
星历时间: 2024-12-20T16:47:51+0800
轨道信息已过期496天
半长轴: 6533.988km
偏心率: 0.0008877
轨道倾角: 53.192°
近地点辐角 43.733°
升交点赤经 40.433°
平近点角 37.960°
近地点: 150.052km
远地点: 161.654km
周期: 87.605分钟
每日圈数: 16.437484
Detailed Information
固有亮度:
5
最大亮度:
2.5
卫星平台:
Starlink v1.5
覆盖范围:
全球
运营商:
太空探索技术公司
运营商所在国:
美国
制造商(研发单位):
太空探索技术公司
制造商所在国:
美国
使用方式:
暂无
Satellite Introduction
星链(Starlink)计划是由太空探索技术公司(SpaceX)提出的一个巨型低轨卫星互联网星座项目,计划在2019年至2024年间在太空搭建由约1.2万颗卫星组成的“星链”网络,其中1584颗将部署在地球上空550千米处的近地轨道,并从2020年开始工作。该卫星仍在工作。